Old browser warning

Site look funky?  Your browser is either Internet Explorer (hit refresh (F5) several times due to a bug in Microsoft's code that we can't work around) or is 10 years old and standards-based layouts and styling confuse it.   Consider updating.  One excellent option is Mozilla Firefox, versions of which are available for Linux, Mac and Windows. Safari 1.0+ and IE 6.0+ are also supported.

Pit At Big Bend [ USA-CAL ]

Edit Gauge

Current Conditions

Reading of "n/a" = frozen gauge or gauge error.
Reading Trend Type Updated
running 0.0 r.c./hr Status 04h38m
1594 cfs 5 cfs/hr Flow 04h38m

Station Description

AW Gauge ID: 45208
Source: dream
Station: 046
Enabled yes
AW thanks Chris Shackleton and Dreamflows for this data. Dreamflows data should only be analyzed in the context of the Dreamflows site. Data is often calculated and/or approximated. Please see Chris's site for a complete description of how this data should and can be interpreted. Source Gauge's Page

Information

Flow

Gauge History

Times listed in GMT 24h, ET and PT hours provided for convenience Graphs in GMT. Readings of "n/a" constitute a frozen gauge or gauge error.
Reading Updated (GMT) Eastern Pacific Comment
1594.00 11/19/2017 16:59:44 Nov 19 11:59 am Nov 19 8:59 am
1589.00 11/19/2017 16:00:00 Nov 19 11:00 am Nov 19 8:00 am
1594.00 11/19/2017 14:58:08 Nov 19 09:58 am Nov 19 6:58 am
1589.00 11/19/2017 13:58:24 Nov 19 08:58 am Nov 19 5:58 am
1589.00 11/19/2017 12:58:40 Nov 19 07:58 am Nov 19 4:58 am
1588.00 11/19/2017 11:58:56 Nov 19 06:58 am Nov 19 3:58 am
1586.00 11/19/2017 10:59:12 Nov 19 05:59 am Nov 19 2:59 am
1589.00 11/19/2017 09:59:28 Nov 19 04:59 am Nov 19 1:59 am
1419.00 11/19/2017 08:00:00 Nov 19 03:00 am Nov 19 12:00 am
1420.00 11/19/2017 02:59:12 Nov 18 09:59 pm Nov 18 6:59 pm
1419.00 11/19/2017 01:59:28 Nov 18 08:59 pm Nov 18 5:59 pm
1417.00 11/19/2017 00:59:44 Nov 18 07:59 pm Nov 18 4:59 pm
1420.00 11/18/2017 22:58:08 Nov 18 05:58 pm Nov 18 2:58 pm
1422.00 11/18/2017 20:58:40 Nov 18 03:58 pm Nov 18 12:58 pm
1422.00 11/18/2017 19:58:56 Nov 18 02:58 pm Nov 18 11:58 am
1427.00 11/18/2017 18:59:12 Nov 18 01:59 pm Nov 18 10:59 am
1430.00 11/18/2017 17:59:28 Nov 18 12:59 pm Nov 18 9:59 am
1430.00 11/18/2017 16:59:44 Nov 18 11:59 am Nov 18 8:59 am
1430.00 11/18/2017 16:00:00 Nov 18 11:00 am Nov 18 8:00 am
1436.00 11/18/2017 14:58:08 Nov 18 09:58 am Nov 18 6:58 am
1437.00 11/18/2017 13:58:24 Nov 18 08:58 am Nov 18 5:58 am
1438.00 11/18/2017 12:58:40 Nov 18 07:58 am Nov 18 4:58 am
1436.00 11/18/2017 11:58:56 Nov 18 06:58 am Nov 18 3:58 am
1433.00 11/18/2017 10:59:12 Nov 18 05:59 am Nov 18 2:59 am
1320.00 11/18/2017 09:59:28 Nov 18 04:59 am Nov 18 1:59 am
1068.00 11/18/2017 01:59:28 Nov 17 08:59 pm Nov 17 5:59 pm
1072.00 11/18/2017 00:00:00 Nov 17 07:00 pm Nov 17 4:00 pm
1069.00 11/17/2017 21:58:24 Nov 17 04:58 pm Nov 17 1:58 pm
1067.00 11/17/2017 20:58:40 Nov 17 03:58 pm Nov 17 12:58 pm
1067.00 11/17/2017 19:58:56 Nov 17 02:58 pm Nov 17 11:58 am
1064.00 11/17/2017 18:59:12 Nov 17 01:59 pm Nov 17 10:59 am
1062.00 11/17/2017 17:59:28 Nov 17 12:59 pm Nov 17 9:59 am
1066.00 11/17/2017 16:59:44 Nov 17 11:59 am Nov 17 8:59 am
1082.00 11/17/2017 16:00:00 Nov 17 11:00 am Nov 17 8:00 am
1135.00 11/17/2017 14:58:08 Nov 17 09:58 am Nov 17 6:58 am
1143.00 11/17/2017 13:58:24 Nov 17 08:58 am Nov 17 5:58 am
1150.00 11/17/2017 12:58:40 Nov 17 07:58 am Nov 17 4:58 am
1150.00 11/17/2017 11:58:56 Nov 17 06:58 am Nov 17 3:58 am
1158.00 11/17/2017 10:59:12 Nov 17 05:59 am Nov 17 2:59 am
1161.00 11/17/2017 09:59:28 Nov 17 04:59 am Nov 17 1:59 am
1169.00 11/17/2017 08:59:44 Nov 17 03:59 am Nov 17 12:59 am
1172.00 11/17/2017 08:00:00 Nov 17 03:00 am Nov 17 12:00 am
1196.00 11/17/2017 01:59:28 Nov 16 08:59 pm Nov 16 5:59 pm
1200.00 11/17/2017 00:59:44 Nov 16 07:59 pm Nov 16 4:59 pm
1193.00 11/17/2017 00:00:00 Nov 16 07:00 pm Nov 16 4:00 pm
1066.00 11/16/2017 21:58:24 Nov 16 04:58 pm Nov 16 1:58 pm
1059.00 11/16/2017 20:58:40 Nov 16 03:58 pm Nov 16 12:58 pm
973.00 11/16/2017 19:58:56 Nov 16 02:58 pm Nov 16 11:58 am
897.00 11/16/2017 18:59:12 Nov 16 01:59 pm Nov 16 10:59 am
903.00 11/16/2017 17:59:28 Nov 16 12:59 pm Nov 16 9:59 am
918.00 11/16/2017 16:59:44 Nov 16 11:59 am Nov 16 8:59 am
950.00 11/16/2017 16:00:00 Nov 16 11:00 am Nov 16 8:00 am
859.00 11/16/2017 14:58:08 Nov 16 09:58 am Nov 16 6:58 am
864.00 11/16/2017 13:58:24 Nov 16 08:58 am Nov 16 5:58 am
865.00 11/16/2017 12:58:40 Nov 16 07:58 am Nov 16 4:58 am
871.00 11/16/2017 11:58:56 Nov 16 06:58 am Nov 16 3:58 am
877.00 11/16/2017 10:59:12 Nov 16 05:59 am Nov 16 2:59 am
886.00 11/16/2017 09:59:28 Nov 16 04:59 am Nov 16 1:59 am
881.00 11/16/2017 08:59:44 Nov 16 03:59 am Nov 16 12:59 am
877.00 11/16/2017 08:00:00 Nov 16 03:00 am Nov 16 12:00 am
824.00 11/16/2017 02:59:12 Nov 15 09:59 pm Nov 15 6:59 pm
823.00 11/16/2017 01:59:28 Nov 15 08:59 pm Nov 15 5:59 pm
810.00 11/16/2017 00:59:44 Nov 15 07:59 pm Nov 15 4:59 pm
801.00 11/16/2017 00:00:00 Nov 15 07:00 pm Nov 15 4:00 pm
693.00 11/15/2017 21:58:24 Nov 15 04:58 pm Nov 15 1:58 pm
682.00 11/15/2017 20:58:40 Nov 15 03:58 pm Nov 15 12:58 pm
673.00 11/15/2017 19:58:56 Nov 15 02:58 pm Nov 15 11:58 am
672.00 11/15/2017 18:59:12 Nov 15 01:59 pm Nov 15 10:59 am
714.00 11/15/2017 17:59:28 Nov 15 12:59 pm Nov 15 9:59 am
716.00 11/15/2017 16:59:44 Nov 15 11:59 am Nov 15 8:59 am
716.00 11/15/2017 16:00:00 Nov 15 11:00 am Nov 15 8:00 am
710.00 11/15/2017 14:58:08 Nov 15 09:58 am Nov 15 6:58 am
705.00 11/15/2017 13:58:24 Nov 15 08:58 am Nov 15 5:58 am
705.00 11/15/2017 12:58:40 Nov 15 07:58 am Nov 15 4:58 am
701.00 11/15/2017 11:58:56 Nov 15 06:58 am Nov 15 3:58 am
699.00 11/15/2017 10:59:12 Nov 15 05:59 am Nov 15 2:59 am
697.00 11/15/2017 09:59:28 Nov 15 04:59 am Nov 15 1:59 am
697.00 11/15/2017 08:59:44 Nov 15 03:59 am Nov 15 12:59 am
695.00 11/15/2017 08:00:00 Nov 15 03:00 am Nov 15 12:00 am
723.00 11/15/2017 02:59:12 Nov 14 09:59 pm Nov 14 6:59 pm
739.00 11/15/2017 01:59:28 Nov 14 08:59 pm Nov 14 5:59 pm
742.00 11/15/2017 00:59:44 Nov 14 07:59 pm Nov 14 4:59 pm
742.00 11/15/2017 00:00:00 Nov 14 07:00 pm Nov 14 4:00 pm
726.00 11/14/2017 21:58:24 Nov 14 04:58 pm Nov 14 1:58 pm
727.00 11/14/2017 20:58:40 Nov 14 03:58 pm Nov 14 12:58 pm
734.00 11/14/2017 19:58:56 Nov 14 02:58 pm Nov 14 11:58 am
720.00 11/14/2017 18:59:12 Nov 14 01:59 pm Nov 14 10:59 am
668.00 11/14/2017 17:59:28 Nov 14 12:59 pm Nov 14 9:59 am
672.00 11/14/2017 16:59:44 Nov 14 11:59 am Nov 14 8:59 am
673.00 11/14/2017 16:00:00 Nov 14 11:00 am Nov 14 8:00 am
673.00 11/14/2017 14:58:08 Nov 14 09:58 am Nov 14 6:58 am
678.00 11/14/2017 13:58:24 Nov 14 08:58 am Nov 14 5:58 am
679.00 11/14/2017 12:58:40 Nov 14 07:58 am Nov 14 4:58 am
683.00 11/14/2017 11:58:56 Nov 14 06:58 am Nov 14 3:58 am
687.00 11/14/2017 10:59:12 Nov 14 05:59 am Nov 14 2:59 am
691.00 11/14/2017 09:59:28 Nov 14 04:59 am Nov 14 1:59 am
697.00 11/14/2017 08:59:44 Nov 14 03:59 am Nov 14 12:59 am
821.00 11/14/2017 02:59:12 Nov 13 09:59 pm Nov 13 6:59 pm
739.00 11/14/2017 01:59:28 Nov 13 08:59 pm Nov 13 5:59 pm
650.00 11/14/2017 00:59:44 Nov 13 07:59 pm Nov 13 4:59 pm
627.00 11/14/2017 00:00:00 Nov 13 07:00 pm Nov 13 4:00 pm
619.00 11/13/2017 21:58:24 Nov 13 04:58 pm Nov 13 1:58 pm
617.00 11/13/2017 20:58:40 Nov 13 03:58 pm Nov 13 12:58 pm
622.00 11/13/2017 19:58:56 Nov 13 02:58 pm Nov 13 11:58 am
622.00 11/13/2017 18:59:12 Nov 13 01:59 pm Nov 13 10:59 am
622.00 11/13/2017 17:59:28 Nov 13 12:59 pm Nov 13 9:59 am
629.00 11/13/2017 16:00:00 Nov 13 11:00 am Nov 13 8:00 am
622.00 11/13/2017 14:58:08 Nov 13 09:58 am Nov 13 6:58 am
622.00 11/13/2017 13:58:24 Nov 13 08:58 am Nov 13 5:58 am
625.00 11/13/2017 12:58:40 Nov 13 07:58 am Nov 13 4:58 am
627.00 11/13/2017 11:58:56 Nov 13 06:58 am Nov 13 3:58 am
627.00 11/13/2017 10:59:12 Nov 13 05:59 am Nov 13 2:59 am
628.00 11/13/2017 09:59:28 Nov 13 04:59 am Nov 13 1:59 am
800.00 11/13/2017 08:00:00 Nov 13 03:00 am Nov 13 12:00 am
1487.00 11/13/2017 02:59:12 Nov 12 09:59 pm Nov 12 6:59 pm
1497.00 11/13/2017 01:59:28 Nov 12 08:59 pm Nov 12 5:59 pm
1497.00 11/13/2017 00:59:44 Nov 12 07:59 pm Nov 12 4:59 pm
1496.00 11/13/2017 00:00:00 Nov 12 07:00 pm Nov 12 4:00 pm
1497.00 11/12/2017 21:58:24 Nov 12 04:58 pm Nov 12 1:58 pm
1495.00 11/12/2017 20:58:40 Nov 12 03:58 pm Nov 12 12:58 pm
1496.00 11/12/2017 19:58:56 Nov 12 02:58 pm Nov 12 11:58 am
1496.00 11/12/2017 18:59:12 Nov 12 01:59 pm Nov 12 10:59 am
1499.00 11/12/2017 17:59:28 Nov 12 12:59 pm Nov 12 9:59 am
1504.00 11/12/2017 16:59:44 Nov 12 11:59 am Nov 12 8:59 am
1497.00 11/12/2017 16:00:00 Nov 12 11:00 am Nov 12 8:00 am
1500.00 11/12/2017 14:58:08 Nov 12 09:58 am Nov 12 6:58 am
1496.00 11/12/2017 13:58:24 Nov 12 08:58 am Nov 12 5:58 am
1502.00 11/12/2017 12:58:40 Nov 12 07:58 am Nov 12 4:58 am
1501.00 11/12/2017 11:58:56 Nov 12 06:58 am Nov 12 3:58 am
1504.00 11/12/2017 10:59:12 Nov 12 05:59 am Nov 12 2:59 am
1509.00 11/12/2017 09:59:28 Nov 12 04:59 am Nov 12 1:59 am
1497.00 11/12/2017 08:00:00 Nov 12 03:00 am Nov 12 12:00 am
1463.00 11/12/2017 02:59:12 Nov 11 09:59 pm Nov 11 6:59 pm
1454.00 11/12/2017 01:59:28 Nov 11 08:59 pm Nov 11 5:59 pm
1459.00 11/12/2017 00:59:44 Nov 11 07:59 pm Nov 11 4:59 pm
1446.00 11/11/2017 22:58:08 Nov 11 05:58 pm Nov 11 2:58 pm
1445.00 11/11/2017 21:58:24 Nov 11 04:58 pm Nov 11 1:58 pm
1439.00 11/11/2017 20:58:40 Nov 11 03:58 pm Nov 11 12:58 pm
1576.00 11/11/2017 19:58:56 Nov 11 02:58 pm Nov 11 11:58 am
1625.00 11/11/2017 18:59:12 Nov 11 01:59 pm Nov 11 10:59 am
1632.00 11/11/2017 17:59:28 Nov 11 12:59 pm Nov 11 9:59 am
1631.00 11/11/2017 16:59:44 Nov 11 11:59 am Nov 11 8:59 am
1650.00 11/11/2017 16:00:00 Nov 11 11:00 am Nov 11 8:00 am
1653.00 11/11/2017 14:58:08 Nov 11 09:58 am Nov 11 6:58 am
1654.00 11/11/2017 13:58:24 Nov 11 08:58 am Nov 11 5:58 am
1667.00 11/11/2017 12:58:40 Nov 11 07:58 am Nov 11 4:58 am
1677.00 11/11/2017 11:58:56 Nov 11 06:58 am Nov 11 3:58 am
1686.00 11/11/2017 10:59:12 Nov 11 05:59 am Nov 11 2:59 am
1691.00 11/11/2017 09:59:28 Nov 11 04:59 am Nov 11 1:59 am
1737.00 11/11/2017 08:59:44 Nov 11 03:59 am Nov 11 12:59 am
1802.00 11/11/2017 08:00:00 Nov 11 03:00 am Nov 11 12:00 am
1618.00 11/11/2017 02:59:12 Nov 10 09:59 pm Nov 10 6:59 pm
1616.00 11/11/2017 01:59:28 Nov 10 08:59 pm Nov 10 5:59 pm
1622.00 11/11/2017 00:59:44 Nov 10 07:59 pm Nov 10 4:59 pm
1612.00 11/11/2017 00:00:00 Nov 10 07:00 pm Nov 10 4:00 pm
1601.00 11/10/2017 22:58:08 Nov 10 05:58 pm Nov 10 2:58 pm
1597.00 11/10/2017 21:58:24 Nov 10 04:58 pm Nov 10 1:58 pm
1572.00 11/10/2017 20:58:40 Nov 10 03:58 pm Nov 10 12:58 pm
1538.00 11/10/2017 19:58:56 Nov 10 02:58 pm Nov 10 11:58 am
1526.00 11/10/2017 18:59:12 Nov 10 01:59 pm Nov 10 10:59 am
1480.00 11/10/2017 17:59:28 Nov 10 12:59 pm Nov 10 9:59 am
1250.00 11/10/2017 16:59:44 Nov 10 11:59 am Nov 10 8:59 am
1001.00 11/10/2017 16:00:00 Nov 10 11:00 am Nov 10 8:00 am
796.00 11/10/2017 14:58:08 Nov 10 09:58 am Nov 10 6:58 am
737.00 11/10/2017 13:58:24 Nov 10 08:58 am Nov 10 5:58 am
742.00 11/10/2017 12:58:40 Nov 10 07:58 am Nov 10 4:58 am
743.00 11/10/2017 11:58:56 Nov 10 06:58 am Nov 10 3:58 am
751.00 11/10/2017 10:59:12 Nov 10 05:59 am Nov 10 2:59 am
757.00 11/10/2017 09:59:28 Nov 10 04:59 am Nov 10 1:59 am
771.00 11/10/2017 08:59:44 Nov 10 03:59 am Nov 10 12:59 am
790.00 11/10/2017 08:00:00 Nov 10 03:00 am Nov 10 12:00 am
753.00 11/10/2017 02:59:12 Nov 9 09:59 pm Nov 9 6:59 pm
751.00 11/10/2017 01:59:28 Nov 9 08:59 pm Nov 9 5:59 pm
722.00 11/10/2017 00:59:44 Nov 9 07:59 pm Nov 9 4:59 pm
689.00 11/09/2017 22:58:08 Nov 9 05:58 pm Nov 9 2:58 pm
656.00 11/09/2017 21:58:24 Nov 9 04:58 pm Nov 9 1:58 pm
615.00 11/09/2017 20:58:40 Nov 9 03:58 pm Nov 9 12:58 pm
617.00 11/09/2017 19:58:56 Nov 9 02:58 pm Nov 9 11:58 am
612.00 11/09/2017 18:59:12 Nov 9 01:59 pm Nov 9 10:59 am
609.00 11/09/2017 17:59:28 Nov 9 12:59 pm Nov 9 9:59 am
591.00 11/09/2017 16:59:44 Nov 9 11:59 am Nov 9 8:59 am
576.00 11/09/2017 16:00:00 Nov 9 11:00 am Nov 9 8:00 am
556.00 11/09/2017 14:58:08 Nov 9 09:58 am Nov 9 6:58 am
551.00 11/09/2017 13:58:24 Nov 9 08:58 am Nov 9 5:58 am
547.00 11/09/2017 12:58:40 Nov 9 07:58 am Nov 9 4:58 am
548.00 11/09/2017 11:58:56 Nov 9 06:58 am Nov 9 3:58 am
551.00 11/09/2017 10:59:12 Nov 9 05:59 am Nov 9 2:59 am
559.00 11/09/2017 09:59:28 Nov 9 04:59 am Nov 9 1:59 am
565.00 11/09/2017 08:59:44 Nov 9 03:59 am Nov 9 12:59 am
547.00 11/09/2017 08:00:00 Nov 9 03:00 am Nov 9 12:00 am
486.00 11/09/2017 02:59:12 Nov 8 09:59 pm Nov 8 6:59 pm
474.00 11/09/2017 01:59:28 Nov 8 08:59 pm Nov 8 5:59 pm
469.00 11/09/2017 00:59:44 Nov 8 07:59 pm Nov 8 4:59 pm
457.00 11/09/2017 00:00:00 Nov 8 07:00 pm Nov 8 4:00 pm
456.00 11/08/2017 22:58:08 Nov 8 05:58 pm Nov 8 2:58 pm
480.00 11/08/2017 21:58:24 Nov 8 04:58 pm Nov 8 1:58 pm
481.00 11/08/2017 20:58:40 Nov 8 03:58 pm Nov 8 12:58 pm
481.00 11/08/2017 19:58:56 Nov 8 02:58 pm Nov 8 11:58 am
481.00 11/08/2017 18:59:12 Nov 8 01:59 pm Nov 8 10:59 am
481.00 11/08/2017 17:59:28 Nov 8 12:59 pm Nov 8 9:59 am
483.00 11/08/2017 16:59:44 Nov 8 11:59 am Nov 8 8:59 am
488.00 11/08/2017 16:00:00 Nov 8 11:00 am Nov 8 8:00 am
497.00 11/08/2017 14:58:08 Nov 8 09:58 am Nov 8 6:58 am
501.00 11/08/2017 13:58:24 Nov 8 08:58 am Nov 8 5:58 am
498.00 11/08/2017 12:58:40 Nov 8 07:58 am Nov 8 4:58 am
498.00 11/08/2017 11:58:56 Nov 8 06:58 am Nov 8 3:58 am
498.00 11/08/2017 10:59:12 Nov 8 05:59 am Nov 8 2:59 am
498.00 11/08/2017 09:59:28 Nov 8 04:59 am Nov 8 1:59 am
498.00 11/08/2017 08:59:44 Nov 8 03:59 am Nov 8 12:59 am
499.00 11/08/2017 08:00:00 Nov 8 03:00 am Nov 8 12:00 am
498.00 11/08/2017 02:59:12 Nov 7 09:59 pm Nov 7 6:59 pm
498.00 11/08/2017 01:59:28 Nov 7 08:59 pm Nov 7 5:59 pm
500.00 11/07/2017 19:58:56 Nov 7 02:58 pm Nov 7 11:58 am
499.00 11/07/2017 17:59:28 Nov 7 12:59 pm Nov 7 9:59 am
485.00 11/07/2017 01:59:28 Nov 6 08:59 pm Nov 6 5:59 pm
486.00 11/07/2017 00:00:00 Nov 6 07:00 pm Nov 6 4:00 pm
489.00 11/06/2017 22:58:08 Nov 6 05:58 pm Nov 6 2:58 pm
489.00 11/06/2017 21:58:24 Nov 6 04:58 pm Nov 6 1:58 pm
489.00 11/06/2017 19:58:56 Nov 6 02:58 pm Nov 6 11:58 am
491.00 11/06/2017 18:59:12 Nov 6 01:59 pm Nov 6 10:59 am
499.00 11/06/2017 14:58:08 Nov 6 09:58 am Nov 6 6:58 am
520.00 11/06/2017 12:58:40 Nov 6 07:58 am Nov 6 4:58 am
510.00 11/06/2017 10:59:12 Nov 6 05:59 am Nov 6 2:59 am
545.00 11/06/2017 02:59:12 Nov 5 09:59 pm Nov 5 6:59 pm
556.00 11/06/2017 00:59:44 Nov 5 07:59 pm Nov 5 4:59 pm
545.00 11/05/2017 21:58:24 Nov 5 04:58 pm Nov 5 1:58 pm
495.00 11/05/2017 19:58:56 Nov 5 02:58 pm Nov 5 11:58 am
487.00 11/05/2017 17:59:28 Nov 5 12:59 pm Nov 5 9:59 am
487.00 11/05/2017 16:59:44 Nov 5 11:59 am Nov 5 8:59 am
486.00 11/05/2017 14:58:08 Nov 5 09:58 am Nov 5 6:58 am
466.00 11/05/2017 12:58:40 Nov 5 07:58 am Nov 5 4:58 am
470.00 11/05/2017 10:59:12 Nov 5 05:59 am Nov 5 2:59 am
569.00 11/05/2017 08:00:00 Nov 5 03:00 am Nov 5 1:00 am
929.00 11/05/2017 02:59:12 Nov 4 10:59 pm Nov 4 7:59 pm
1027.00 11/05/2017 00:59:44 Nov 4 08:59 pm Nov 4 5:59 pm
1110.00 11/04/2017 22:58:08 Nov 4 06:58 pm Nov 4 3:58 pm
1122.00 11/04/2017 20:58:40 Nov 4 04:58 pm Nov 4 1:58 pm
1324.00 11/04/2017 18:59:12 Nov 4 02:59 pm Nov 4 11:59 am
1331.00 11/04/2017 16:59:44 Nov 4 12:59 pm Nov 4 9:59 am
1340.00 11/04/2017 14:58:08 Nov 4 10:58 am Nov 4 7:58 am
1351.00 11/04/2017 12:58:40 Nov 4 08:58 am Nov 4 5:58 am
1353.00 11/04/2017 10:59:12 Nov 4 06:59 am Nov 4 3:59 am
1355.00 11/04/2017 08:59:44 Nov 4 04:59 am Nov 4 1:59 am
1338.00 11/04/2017 06:58:08 Nov 4 02:58 am Nov 3 11:58 pm
1341.00 11/04/2017 02:59:12 Nov 3 10:59 pm Nov 3 7:59 pm
1309.00 11/04/2017 00:59:44 Nov 3 08:59 pm Nov 3 5:59 pm
1312.00 11/03/2017 21:58:24 Nov 3 05:58 pm Nov 3 2:58 pm
1314.00 11/03/2017 19:58:56 Nov 3 03:58 pm Nov 3 12:58 pm
1300.00 11/03/2017 18:59:12 Nov 3 02:59 pm Nov 3 11:59 am
1317.00 11/03/2017 17:59:28 Nov 3 01:59 pm Nov 3 10:59 am
1303.00 11/03/2017 16:00:00 Nov 3 12:00 pm Nov 3 9:00 am
1297.00 11/03/2017 13:58:24 Nov 3 09:58 am Nov 3 6:58 am
1295.00 11/03/2017 11:58:56 Nov 3 07:58 am Nov 3 4:58 am
1276.00 11/03/2017 09:59:28 Nov 3 05:59 am Nov 3 2:59 am
1267.00 11/03/2017 08:00:00 Nov 3 04:00 am Nov 3 1:00 am
1264.00 11/03/2017 02:59:12 Nov 2 10:59 pm Nov 2 7:59 pm
1264.00 11/03/2017 01:59:28 Nov 2 09:59 pm Nov 2 6:59 pm
1351.00 11/02/2017 22:58:08 Nov 2 06:58 pm Nov 2 3:58 pm
1361.00 11/02/2017 20:58:40 Nov 2 04:58 pm Nov 2 1:58 pm
1373.00 11/02/2017 18:59:12 Nov 2 02:59 pm Nov 2 11:59 am
1382.00 11/02/2017 16:59:44 Nov 2 12:59 pm Nov 2 9:59 am
1386.00 11/02/2017 14:58:08 Nov 2 10:58 am Nov 2 7:58 am
1406.00 11/02/2017 12:58:40 Nov 2 08:58 am Nov 2 5:58 am
1411.00 11/02/2017 10:59:12 Nov 2 06:59 am Nov 2 3:59 am
1425.00 11/02/2017 08:59:44 Nov 2 04:59 am Nov 2 1:59 am
1423.00 11/02/2017 06:58:08 Nov 2 02:58 am Nov 1 11:58 pm
1437.00 11/02/2017 02:59:12 Nov 1 10:59 pm Nov 1 7:59 pm
1302.00 11/01/2017 22:58:08 Nov 1 06:58 pm Nov 1 3:58 pm
1296.00 11/01/2017 21:58:24 Nov 1 05:58 pm Nov 1 2:58 pm
1300.00 11/01/2017 19:58:56 Nov 1 03:58 pm Nov 1 12:58 pm
1300.00 11/01/2017 18:59:12 Nov 1 02:59 pm Nov 1 11:59 am
1294.00 11/01/2017 17:59:28 Nov 1 01:59 pm Nov 1 10:59 am
1287.00 11/01/2017 16:00:00 Nov 1 12:00 pm Nov 1 9:00 am
1267.00 11/01/2017 13:58:24 Nov 1 09:58 am Nov 1 6:58 am
1271.00 11/01/2017 09:59:28 Nov 1 05:59 am Nov 1 2:59 am
1275.00 11/01/2017 08:59:44 Nov 1 04:59 am Nov 1 1:59 am
1262.00 11/01/2017 06:58:08 Nov 1 02:58 am Oct 31 11:58 pm
1263.00 11/01/2017 02:59:12 Oct 31 10:59 pm Oct 31 7:59 pm
1261.00 11/01/2017 00:59:44 Oct 31 08:59 pm Oct 31 5:59 pm
1259.00 10/31/2017 22:58:08 Oct 31 06:58 pm Oct 31 3:58 pm
1257.00 10/31/2017 20:58:40 Oct 31 04:58 pm Oct 31 1:58 pm
1259.00 10/31/2017 18:59:12 Oct 31 02:59 pm Oct 31 11:59 am
1259.00 10/31/2017 16:59:44 Oct 31 12:59 pm Oct 31 9:59 am
1254.00 10/31/2017 14:58:08 Oct 31 10:58 am Oct 31 7:58 am
1251.00 10/31/2017 13:58:24 Oct 31 09:58 am Oct 31 6:58 am
1243.00 10/31/2017 11:58:56 Oct 31 07:58 am Oct 31 4:58 am
1232.00 10/31/2017 09:59:28 Oct 31 05:59 am Oct 31 2:59 am
1226.00 10/31/2017 08:00:00 Oct 31 04:00 am Oct 31 1:00 am
1231.00 10/31/2017 01:59:28 Oct 30 09:59 pm Oct 30 6:59 pm
1234.00 10/31/2017 00:00:00 Oct 30 08:00 pm Oct 30 5:00 pm
1233.00 10/30/2017 21:58:24 Oct 30 05:58 pm Oct 30 2:58 pm
1236.00 10/30/2017 19:58:56 Oct 30 03:58 pm Oct 30 12:58 pm
1250.00 10/30/2017 18:59:12 Oct 30 02:59 pm Oct 30 11:59 am
1236.00 10/30/2017 17:59:28 Oct 30 01:59 pm Oct 30 10:59 am
1234.00 10/30/2017 14:58:08 Oct 30 10:58 am Oct 30 7:58 am
1238.00 10/30/2017 12:58:40 Oct 30 08:58 am Oct 30 5:58 am
1250.00 10/29/2017 18:59:12 Oct 29 02:59 pm Oct 29 11:59 am
2122.00 10/26/2017 22:58:08 Oct 26 06:58 pm Oct 26 3:58 pm
2143.00 10/26/2017 19:58:56 Oct 26 03:58 pm Oct 26 12:58 pm
2150.00 10/26/2017 18:59:12 Oct 26 02:59 pm Oct 26 11:59 am

Status

Gauge History

Times listed in GMT 24h, ET and PT hours provided for convenience Graphs in GMT. Readings of "n/a" constitute a frozen gauge or gauge error.
Reading Updated (GMT) Eastern Pacific Comment
running 11/19/2017 16:59:44 Nov 19 11:59 am Nov 19 8:59 am
running 11/19/2017 16:00:00 Nov 19 11:00 am Nov 19 8:00 am
running 11/19/2017 14:58:08 Nov 19 09:58 am Nov 19 6:58 am
running 11/19/2017 13:58:24 Nov 19 08:58 am Nov 19 5:58 am
running 11/19/2017 12:58:40 Nov 19 07:58 am Nov 19 4:58 am
running 11/19/2017 11:58:56 Nov 19 06:58 am Nov 19 3:58 am
running 11/19/2017 10:59:12 Nov 19 05:59 am Nov 19 2:59 am
running 11/19/2017 02:59:12 Nov 18 09:59 pm Nov 18 6:59 pm
running 11/19/2017 00:59:44 Nov 18 07:59 pm Nov 18 4:59 pm
running 11/18/2017 22:58:08 Nov 18 05:58 pm Nov 18 2:58 pm
running 11/18/2017 20:58:40 Nov 18 03:58 pm Nov 18 12:58 pm
running 11/18/2017 19:58:56 Nov 18 02:58 pm Nov 18 11:58 am
running 11/18/2017 18:59:12 Nov 18 01:59 pm Nov 18 10:59 am
running 11/18/2017 17:59:28 Nov 18 12:59 pm Nov 18 9:59 am
running 11/18/2017 16:59:44 Nov 18 11:59 am Nov 18 8:59 am
running 11/18/2017 16:00:00 Nov 18 11:00 am Nov 18 8:00 am
running 11/18/2017 14:58:08 Nov 18 09:58 am Nov 18 6:58 am
running 11/18/2017 12:58:40 Nov 18 07:58 am Nov 18 4:58 am
running 11/18/2017 11:58:56 Nov 18 06:58 am Nov 18 3:58 am
running 11/18/2017 10:59:12 Nov 18 05:59 am Nov 18 2:59 am
running 11/18/2017 01:59:28 Nov 17 08:59 pm Nov 17 5:59 pm
running 11/17/2017 21:58:24 Nov 17 04:58 pm Nov 17 1:58 pm
running 11/17/2017 20:58:40 Nov 17 03:58 pm Nov 17 12:58 pm
running 11/17/2017 19:58:56 Nov 17 02:58 pm Nov 17 11:58 am
running 11/17/2017 18:59:12 Nov 17 01:59 pm Nov 17 10:59 am
running 11/17/2017 17:59:28 Nov 17 12:59 pm Nov 17 9:59 am
running 11/17/2017 16:59:44 Nov 17 11:59 am Nov 17 8:59 am
running 11/17/2017 16:00:00 Nov 17 11:00 am Nov 17 8:00 am
running 11/17/2017 14:58:08 Nov 17 09:58 am Nov 17 6:58 am
running 11/17/2017 13:58:24 Nov 17 08:58 am Nov 17 5:58 am
running 11/17/2017 12:58:40 Nov 17 07:58 am Nov 17 4:58 am
running 11/17/2017 11:58:56 Nov 17 06:58 am Nov 17 3:58 am
running 11/17/2017 10:59:12 Nov 17 05:59 am Nov 17 2:59 am
running 11/17/2017 09:59:28 Nov 17 04:59 am Nov 17 1:59 am
running 11/17/2017 08:59:44 Nov 17 03:59 am Nov 17 12:59 am
running 11/17/2017 08:00:00 Nov 17 03:00 am Nov 17 12:00 am
running 11/17/2017 01:59:28 Nov 16 08:59 pm Nov 16 5:59 pm
running 11/17/2017 00:59:44 Nov 16 07:59 pm Nov 16 4:59 pm
running 11/16/2017 20:58:40 Nov 16 03:58 pm Nov 16 12:58 pm
running 11/16/2017 19:58:56 Nov 16 02:58 pm Nov 16 11:58 am
running 11/16/2017 18:59:12 Nov 16 01:59 pm Nov 16 10:59 am
running 11/16/2017 17:59:28 Nov 16 12:59 pm Nov 16 9:59 am
running 11/16/2017 16:59:44 Nov 16 11:59 am Nov 16 8:59 am
running 11/16/2017 16:00:00 Nov 16 11:00 am Nov 16 8:00 am
running 11/16/2017 14:58:08 Nov 16 09:58 am Nov 16 6:58 am
running 11/16/2017 13:58:24 Nov 16 08:58 am Nov 16 5:58 am
running 11/16/2017 12:58:40 Nov 16 07:58 am Nov 16 4:58 am
running 11/16/2017 11:58:56 Nov 16 06:58 am Nov 16 3:58 am
running 11/16/2017 10:59:12 Nov 16 05:59 am Nov 16 2:59 am
running 11/16/2017 09:59:28 Nov 16 04:59 am Nov 16 1:59 am
running 11/16/2017 08:59:44 Nov 16 03:59 am Nov 16 12:59 am
running 11/16/2017 08:00:00 Nov 16 03:00 am Nov 16 12:00 am
running 11/16/2017 02:59:12 Nov 15 09:59 pm Nov 15 6:59 pm
running 11/16/2017 01:59:28 Nov 15 08:59 pm Nov 15 5:59 pm
running 11/16/2017 00:59:44 Nov 15 07:59 pm Nov 15 4:59 pm
running 11/16/2017 00:00:00 Nov 15 07:00 pm Nov 15 4:00 pm
too low 11/15/2017 21:58:24 Nov 15 04:58 pm Nov 15 1:58 pm
too low 11/15/2017 20:58:40 Nov 15 03:58 pm Nov 15 12:58 pm
too low 11/15/2017 19:58:56 Nov 15 02:58 pm Nov 15 11:58 am
too low 11/15/2017 18:59:12 Nov 15 01:59 pm Nov 15 10:59 am
too low 11/15/2017 17:59:28 Nov 15 12:59 pm Nov 15 9:59 am
too low 11/15/2017 16:59:44 Nov 15 11:59 am Nov 15 8:59 am
too low 11/15/2017 16:00:00 Nov 15 11:00 am Nov 15 8:00 am
too low 11/15/2017 14:58:08 Nov 15 09:58 am Nov 15 6:58 am
too low 11/15/2017 13:58:24 Nov 15 08:58 am Nov 15 5:58 am
too low 11/15/2017 12:58:40 Nov 15 07:58 am Nov 15 4:58 am
too low 11/15/2017 10:59:12 Nov 15 05:59 am Nov 15 2:59 am
too low 11/15/2017 09:59:28 Nov 15 04:59 am Nov 15 1:59 am
too low 11/15/2017 08:59:44 Nov 15 03:59 am Nov 15 12:59 am
too low 11/15/2017 02:59:12 Nov 14 09:59 pm Nov 14 6:59 pm
too low 11/15/2017 00:59:44 Nov 14 07:59 pm Nov 14 4:59 pm
too low 11/15/2017 00:00:00 Nov 14 07:00 pm Nov 14 4:00 pm
too low 11/14/2017 20:58:40 Nov 14 03:58 pm Nov 14 12:58 pm
too low 11/14/2017 19:58:56 Nov 14 02:58 pm Nov 14 11:58 am
too low 11/14/2017 18:59:12 Nov 14 01:59 pm Nov 14 10:59 am
too low 11/14/2017 17:59:28 Nov 14 12:59 pm Nov 14 9:59 am
too low 11/14/2017 16:59:44 Nov 14 11:59 am Nov 14 8:59 am
too low 11/14/2017 16:00:00 Nov 14 11:00 am Nov 14 8:00 am
too low 11/14/2017 14:58:08 Nov 14 09:58 am Nov 14 6:58 am
too low 11/14/2017 13:58:24 Nov 14 08:58 am Nov 14 5:58 am
too low 11/14/2017 12:58:40 Nov 14 07:58 am Nov 14 4:58 am
too low 11/14/2017 11:58:56 Nov 14 06:58 am Nov 14 3:58 am
too low 11/14/2017 10:59:12 Nov 14 05:59 am Nov 14 2:59 am
too low 11/14/2017 08:59:44 Nov 14 03:59 am Nov 14 12:59 am
running 11/14/2017 02:59:12 Nov 13 09:59 pm Nov 13 6:59 pm
too low 11/14/2017 01:59:28 Nov 13 08:59 pm Nov 13 5:59 pm
too low 11/14/2017 00:59:44 Nov 13 07:59 pm Nov 13 4:59 pm
too low 11/13/2017 20:58:40 Nov 13 03:58 pm Nov 13 12:58 pm
too low 11/13/2017 19:58:56 Nov 13 02:58 pm Nov 13 11:58 am
too low 11/13/2017 18:59:12 Nov 13 01:59 pm Nov 13 10:59 am
too low 11/13/2017 17:59:28 Nov 13 12:59 pm Nov 13 9:59 am
too low 11/13/2017 16:00:00 Nov 13 11:00 am Nov 13 8:00 am
too low 11/13/2017 14:58:08 Nov 13 09:58 am Nov 13 6:58 am
too low 11/13/2017 13:58:24 Nov 13 08:58 am Nov 13 5:58 am
too low 11/13/2017 12:58:40 Nov 13 07:58 am Nov 13 4:58 am
too low 11/13/2017 11:58:56 Nov 13 06:58 am Nov 13 3:58 am
too low 11/13/2017 10:59:12 Nov 13 05:59 am Nov 13 2:59 am
too low 11/13/2017 09:59:28 Nov 13 04:59 am Nov 13 1:59 am
running 11/13/2017 08:00:00 Nov 13 03:00 am Nov 13 12:00 am
running 11/13/2017 02:59:12 Nov 12 09:59 pm Nov 12 6:59 pm
running 11/13/2017 01:59:28 Nov 12 08:59 pm Nov 12 5:59 pm
running 11/13/2017 00:59:44 Nov 12 07:59 pm Nov 12 4:59 pm
running 11/13/2017 00:00:00 Nov 12 07:00 pm Nov 12 4:00 pm
running 11/12/2017 21:58:24 Nov 12 04:58 pm Nov 12 1:58 pm
running 11/12/2017 20:58:40 Nov 12 03:58 pm Nov 12 12:58 pm
running 11/12/2017 19:58:56 Nov 12 02:58 pm Nov 12 11:58 am
running 11/12/2017 18:59:12 Nov 12 01:59 pm Nov 12 10:59 am
running 11/12/2017 16:59:44 Nov 12 11:59 am Nov 12 8:59 am
running 11/12/2017 16:00:00 Nov 12 11:00 am Nov 12 8:00 am
running 11/12/2017 14:58:08 Nov 12 09:58 am Nov 12 6:58 am
running 11/12/2017 13:58:24 Nov 12 08:58 am Nov 12 5:58 am
running 11/12/2017 12:58:40 Nov 12 07:58 am Nov 12 4:58 am
running 11/12/2017 11:58:56 Nov 12 06:58 am Nov 12 3:58 am
running 11/12/2017 10:59:12 Nov 12 05:59 am Nov 12 2:59 am
running 11/12/2017 09:59:28 Nov 12 04:59 am Nov 12 1:59 am
running 11/12/2017 08:00:00 Nov 12 03:00 am Nov 12 12:00 am
running 11/12/2017 02:59:12 Nov 11 09:59 pm Nov 11 6:59 pm
running 11/12/2017 01:59:28 Nov 11 08:59 pm Nov 11 5:59 pm
running 11/12/2017 00:59:44 Nov 11 07:59 pm Nov 11 4:59 pm
running 11/11/2017 22:58:08 Nov 11 05:58 pm Nov 11 2:58 pm
running 11/11/2017 20:58:40 Nov 11 03:58 pm Nov 11 12:58 pm
running 11/11/2017 19:58:56 Nov 11 02:58 pm Nov 11 11:58 am
running 11/11/2017 18:59:12 Nov 11 01:59 pm Nov 11 10:59 am
running 11/11/2017 17:59:28 Nov 11 12:59 pm Nov 11 9:59 am
running 11/11/2017 16:59:44 Nov 11 11:59 am Nov 11 8:59 am
running 11/11/2017 16:00:00 Nov 11 11:00 am Nov 11 8:00 am
running 11/11/2017 14:58:08 Nov 11 09:58 am Nov 11 6:58 am
running 11/11/2017 13:58:24 Nov 11 08:58 am Nov 11 5:58 am
running 11/11/2017 12:58:40 Nov 11 07:58 am Nov 11 4:58 am
running 11/11/2017 11:58:56 Nov 11 06:58 am Nov 11 3:58 am
running 11/11/2017 10:59:12 Nov 11 05:59 am Nov 11 2:59 am
running 11/11/2017 09:59:28 Nov 11 04:59 am Nov 11 1:59 am
running 11/11/2017 08:59:44 Nov 11 03:59 am Nov 11 12:59 am
running 11/11/2017 08:00:00 Nov 11 03:00 am Nov 11 12:00 am
running 11/11/2017 02:59:12 Nov 10 09:59 pm Nov 10 6:59 pm
running 11/11/2017 01:59:28 Nov 10 08:59 pm Nov 10 5:59 pm
running 11/11/2017 00:59:44 Nov 10 07:59 pm Nov 10 4:59 pm
running 11/11/2017 00:00:00 Nov 10 07:00 pm Nov 10 4:00 pm
running 11/10/2017 22:58:08 Nov 10 05:58 pm Nov 10 2:58 pm
running 11/10/2017 21:58:24 Nov 10 04:58 pm Nov 10 1:58 pm
running 11/10/2017 20:58:40 Nov 10 03:58 pm Nov 10 12:58 pm
running 11/10/2017 19:58:56 Nov 10 02:58 pm Nov 10 11:58 am
running 11/10/2017 18:59:12 Nov 10 01:59 pm Nov 10 10:59 am
running 11/10/2017 17:59:28 Nov 10 12:59 pm Nov 10 9:59 am
running 11/10/2017 16:59:44 Nov 10 11:59 am Nov 10 8:59 am
running 11/10/2017 16:00:00 Nov 10 11:00 am Nov 10 8:00 am
too low 11/10/2017 14:58:08 Nov 10 09:58 am Nov 10 6:58 am
too low 11/10/2017 13:58:24 Nov 10 08:58 am Nov 10 5:58 am
too low 11/10/2017 12:58:40 Nov 10 07:58 am Nov 10 4:58 am
too low 11/10/2017 11:58:56 Nov 10 06:58 am Nov 10 3:58 am
too low 11/10/2017 10:59:12 Nov 10 05:59 am Nov 10 2:59 am
too low 11/10/2017 09:59:28 Nov 10 04:59 am Nov 10 1:59 am
too low 11/10/2017 08:59:44 Nov 10 03:59 am Nov 10 12:59 am
too low 11/10/2017 08:00:00 Nov 10 03:00 am Nov 10 12:00 am
too low 11/10/2017 02:59:12 Nov 9 09:59 pm Nov 9 6:59 pm
too low 11/10/2017 01:59:28 Nov 9 08:59 pm Nov 9 5:59 pm
too low 11/10/2017 00:59:44 Nov 9 07:59 pm Nov 9 4:59 pm
too low 11/09/2017 22:58:08 Nov 9 05:58 pm Nov 9 2:58 pm
too low 11/09/2017 21:58:24 Nov 9 04:58 pm Nov 9 1:58 pm
too low 11/09/2017 20:58:40 Nov 9 03:58 pm Nov 9 12:58 pm
too low 11/09/2017 19:58:56 Nov 9 02:58 pm Nov 9 11:58 am
too low 11/09/2017 18:59:12 Nov 9 01:59 pm Nov 9 10:59 am
too low 11/09/2017 17:59:28 Nov 9 12:59 pm Nov 9 9:59 am
too low 11/09/2017 16:59:44 Nov 9 11:59 am Nov 9 8:59 am
too low 11/09/2017 16:00:00 Nov 9 11:00 am Nov 9 8:00 am
too low 11/09/2017 14:58:08 Nov 9 09:58 am Nov 9 6:58 am
too low 11/09/2017 13:58:24 Nov 9 08:58 am Nov 9 5:58 am
too low 11/09/2017 12:58:40 Nov 9 07:58 am Nov 9 4:58 am
too low 11/09/2017 11:58:56 Nov 9 06:58 am Nov 9 3:58 am
too low 11/09/2017 10:59:12 Nov 9 05:59 am Nov 9 2:59 am
too low 11/09/2017 09:59:28 Nov 9 04:59 am Nov 9 1:59 am
too low 11/09/2017 08:59:44 Nov 9 03:59 am Nov 9 12:59 am
too low 11/09/2017 08:00:00 Nov 9 03:00 am Nov 9 12:00 am
too low 11/09/2017 02:59:12 Nov 8 09:59 pm Nov 8 6:59 pm
too low 11/09/2017 01:59:28 Nov 8 08:59 pm Nov 8 5:59 pm
too low 11/09/2017 00:59:44 Nov 8 07:59 pm Nov 8 4:59 pm
too low 11/08/2017 22:58:08 Nov 8 05:58 pm Nov 8 2:58 pm
too low 11/08/2017 20:58:40 Nov 8 03:58 pm Nov 8 12:58 pm
too low 11/08/2017 19:58:56 Nov 8 02:58 pm Nov 8 11:58 am
too low 11/08/2017 18:59:12 Nov 8 01:59 pm Nov 8 10:59 am
too low 11/08/2017 17:59:28 Nov 8 12:59 pm Nov 8 9:59 am
too low 11/08/2017 16:59:44 Nov 8 11:59 am Nov 8 8:59 am
too low 11/08/2017 16:00:00 Nov 8 11:00 am Nov 8 8:00 am
too low 11/08/2017 14:58:08 Nov 8 09:58 am Nov 8 6:58 am
too low 11/08/2017 13:58:24 Nov 8 08:58 am Nov 8 5:58 am
too low 11/08/2017 12:58:40 Nov 8 07:58 am Nov 8 4:58 am
too low 11/08/2017 11:58:56 Nov 8 06:58 am Nov 8 3:58 am
too low 11/08/2017 10:59:12 Nov 8 05:59 am Nov 8 2:59 am
too low 11/08/2017 09:59:28 Nov 8 04:59 am Nov 8 1:59 am
too low 11/08/2017 08:59:44 Nov 8 03:59 am Nov 8 12:59 am
too low 11/08/2017 08:00:00 Nov 8 03:00 am Nov 8 12:00 am
too low 11/08/2017 02:59:12 Nov 7 09:59 pm Nov 7 6:59 pm
too low 11/08/2017 01:59:28 Nov 7 08:59 pm Nov 7 5:59 pm
too low 11/07/2017 17:59:28 Nov 7 12:59 pm Nov 7 9:59 am
too low 11/07/2017 01:59:28 Nov 6 08:59 pm Nov 6 5:59 pm
too low 11/07/2017 00:00:00 Nov 6 07:00 pm Nov 6 4:00 pm
too low 11/06/2017 22:58:08 Nov 6 05:58 pm Nov 6 2:58 pm
too low 11/06/2017 18:59:12 Nov 6 01:59 pm Nov 6 10:59 am
too low 11/06/2017 14:58:08 Nov 6 09:58 am Nov 6 6:58 am
too low 11/06/2017 12:58:40 Nov 6 07:58 am Nov 6 4:58 am
too low 11/06/2017 10:59:12 Nov 6 05:59 am Nov 6 2:59 am
too low 11/06/2017 02:59:12 Nov 5 09:59 pm Nov 5 6:59 pm
too low 11/06/2017 00:59:44 Nov 5 07:59 pm Nov 5 4:59 pm
too low 11/05/2017 21:58:24 Nov 5 04:58 pm Nov 5 1:58 pm
too low 11/05/2017 19:58:56 Nov 5 02:58 pm Nov 5 11:58 am
too low 11/05/2017 17:59:28 Nov 5 12:59 pm Nov 5 9:59 am
too low 11/05/2017 16:59:44 Nov 5 11:59 am Nov 5 8:59 am
too low 11/05/2017 14:58:08 Nov 5 09:58 am Nov 5 6:58 am
too low 11/05/2017 12:58:40 Nov 5 07:58 am Nov 5 4:58 am
too low 11/05/2017 10:59:12 Nov 5 05:59 am Nov 5 2:59 am
too low 11/05/2017 08:00:00 Nov 5 03:00 am Nov 5 1:00 am
running 11/05/2017 02:59:12 Nov 4 10:59 pm Nov 4 7:59 pm
running 11/05/2017 00:59:44 Nov 4 08:59 pm Nov 4 5:59 pm
running 11/04/2017 22:58:08 Nov 4 06:58 pm Nov 4 3:58 pm
running 11/04/2017 20:58:40 Nov 4 04:58 pm Nov 4 1:58 pm
running 11/04/2017 18:59:12 Nov 4 02:59 pm Nov 4 11:59 am
running 11/04/2017 16:59:44 Nov 4 12:59 pm Nov 4 9:59 am
running 11/04/2017 14:58:08 Nov 4 10:58 am Nov 4 7:58 am
running 11/04/2017 12:58:40 Nov 4 08:58 am Nov 4 5:58 am
running 11/04/2017 10:59:12 Nov 4 06:59 am Nov 4 3:59 am
running 11/04/2017 08:59:44 Nov 4 04:59 am Nov 4 1:59 am
running 11/04/2017 06:58:08 Nov 4 02:58 am Nov 3 11:58 pm
running 11/04/2017 02:59:12 Nov 3 10:59 pm Nov 3 7:59 pm
running 11/04/2017 00:59:44 Nov 3 08:59 pm Nov 3 5:59 pm
running 11/03/2017 21:58:24 Nov 3 05:58 pm Nov 3 2:58 pm
running 11/03/2017 19:58:56 Nov 3 03:58 pm Nov 3 12:58 pm
running 11/03/2017 17:59:28 Nov 3 01:59 pm Nov 3 10:59 am
running 11/03/2017 16:00:00 Nov 3 12:00 pm Nov 3 9:00 am
running 11/03/2017 13:58:24 Nov 3 09:58 am Nov 3 6:58 am
running 11/03/2017 11:58:56 Nov 3 07:58 am Nov 3 4:58 am
running 11/03/2017 09:59:28 Nov 3 05:59 am Nov 3 2:59 am
running 11/03/2017 08:00:00 Nov 3 04:00 am Nov 3 1:00 am
running 11/03/2017 01:59:28 Nov 2 09:59 pm Nov 2 6:59 pm
running 11/02/2017 22:58:08 Nov 2 06:58 pm Nov 2 3:58 pm
running 11/02/2017 20:58:40 Nov 2 04:58 pm Nov 2 1:58 pm
running 11/02/2017 18:59:12 Nov 2 02:59 pm Nov 2 11:59 am
running 11/02/2017 16:59:44 Nov 2 12:59 pm Nov 2 9:59 am
running 11/02/2017 14:58:08 Nov 2 10:58 am Nov 2 7:58 am
running 11/02/2017 12:58:40 Nov 2 08:58 am Nov 2 5:58 am
running 11/02/2017 10:59:12 Nov 2 06:59 am Nov 2 3:59 am
running 11/02/2017 08:59:44 Nov 2 04:59 am Nov 2 1:59 am
running 11/02/2017 06:58:08 Nov 2 02:58 am Nov 1 11:58 pm
running 11/02/2017 02:59:12 Nov 1 10:59 pm Nov 1 7:59 pm
running 11/01/2017 22:58:08 Nov 1 06:58 pm Nov 1 3:58 pm
running 11/01/2017 21:58:24 Nov 1 05:58 pm Nov 1 2:58 pm
running 11/01/2017 19:58:56 Nov 1 03:58 pm Nov 1 12:58 pm
running 11/01/2017 17:59:28 Nov 1 01:59 pm Nov 1 10:59 am
running 11/01/2017 16:00:00 Nov 1 12:00 pm Nov 1 9:00 am
running 11/01/2017 13:58:24 Nov 1 09:58 am Nov 1 6:58 am
running 11/01/2017 09:59:28 Nov 1 05:59 am Nov 1 2:59 am
running 11/01/2017 08:59:44 Nov 1 04:59 am Nov 1 1:59 am
running 11/01/2017 06:58:08 Nov 1 02:58 am Oct 31 11:58 pm
running 11/01/2017 02:59:12 Oct 31 10:59 pm Oct 31 7:59 pm
running 11/01/2017 00:59:44 Oct 31 08:59 pm Oct 31 5:59 pm
running 10/31/2017 22:58:08 Oct 31 06:58 pm Oct 31 3:58 pm
running 10/31/2017 20:58:40 Oct 31 04:58 pm Oct 31 1:58 pm
running 10/31/2017 18:59:12 Oct 31 02:59 pm Oct 31 11:59 am
running 10/31/2017 16:59:44 Oct 31 12:59 pm Oct 31 9:59 am
running 10/31/2017 14:58:08 Oct 31 10:58 am Oct 31 7:58 am
running 10/31/2017 13:58:24 Oct 31 09:58 am Oct 31 6:58 am
running 10/31/2017 11:58:56 Oct 31 07:58 am Oct 31 4:58 am
running 10/31/2017 09:59:28 Oct 31 05:59 am Oct 31 2:59 am
running 10/31/2017 08:00:00 Oct 31 04:00 am Oct 31 1:00 am
running 10/31/2017 01:59:28 Oct 30 09:59 pm Oct 30 6:59 pm
running 10/31/2017 00:00:00 Oct 30 08:00 pm Oct 30 5:00 pm
running 10/30/2017 21:58:24 Oct 30 05:58 pm Oct 30 2:58 pm
running 10/30/2017 19:58:56 Oct 30 03:58 pm Oct 30 12:58 pm
running 10/30/2017 17:59:28 Oct 30 01:59 pm Oct 30 10:59 am
running 10/30/2017 14:58:08 Oct 30 10:58 am Oct 30 7:58 am
running 10/30/2017 12:58:40 Oct 30 08:58 am Oct 30 5:58 am
running 10/29/2017 18:59:12 Oct 29 02:59 pm Oct 29 11:59 am
running 10/26/2017 19:58:56 Oct 26 03:58 pm Oct 26 12:58 pm
running 10/26/2017 17:59:28 Oct 26 01:59 pm Oct 26 10:59 am
running 10/26/2017 16:00:00 Oct 26 12:00 pm Oct 26 9:00 am
running 10/26/2017 13:58:24 Oct 26 09:58 am Oct 26 6:58 am
running 10/26/2017 11:58:56 Oct 26 07:58 am Oct 26 4:58 am
running 10/26/2017 09:59:28 Oct 26 05:59 am Oct 26 2:59 am
running 10/26/2017 08:00:00 Oct 26 04:00 am Oct 26 1:00 am
running 10/26/2017 01:59:28 Oct 25 09:59 pm Oct 25 6:59 pm
running 10/26/2017 00:00:00 Oct 25 08:00 pm Oct 25 5:00 pm
running 10/25/2017 21:58:24 Oct 25 05:58 pm Oct 25 2:58 pm
running 10/25/2017 19:58:56 Oct 25 03:58 pm Oct 25 12:58 pm
running 10/25/2017 17:59:28 Oct 25 01:59 pm Oct 25 10:59 am
running 10/25/2017 16:00:00 Oct 25 12:00 pm Oct 25 9:00 am
running 10/25/2017 13:58:24 Oct 25 09:58 am Oct 25 6:58 am
running 10/25/2017 11:58:56 Oct 25 07:58 am Oct 25 4:58 am
running 10/25/2017 09:59:28 Oct 25 05:59 am Oct 25 2:59 am
running 10/25/2017 08:00:00 Oct 25 04:00 am Oct 25 1:00 am
running 10/25/2017 01:59:28 Oct 24 09:59 pm Oct 24 6:59 pm
running 10/25/2017 00:00:00 Oct 24 08:00 pm Oct 24 5:00 pm
running 10/24/2017 21:58:24 Oct 24 05:58 pm Oct 24 2:58 pm
running 10/24/2017 19:58:56 Oct 24 03:58 pm Oct 24 12:58 pm
running 10/24/2017 17:59:28 Oct 24 01:59 pm Oct 24 10:59 am
running 10/24/2017 16:00:00 Oct 24 12:00 pm Oct 24 9:00 am
running 10/24/2017 13:58:24 Oct 24 09:58 am Oct 24 6:58 am
running 10/24/2017 11:58:56 Oct 24 07:58 am Oct 24 4:58 am
running 10/24/2017 09:59:28 Oct 24 05:59 am Oct 24 2:59 am
running 10/24/2017 08:00:00 Oct 24 04:00 am Oct 24 1:00 am
running 10/24/2017 01:59:28 Oct 23 09:59 pm Oct 23 6:59 pm
running 10/24/2017 00:00:00 Oct 23 08:00 pm Oct 23 5:00 pm

Report - Reports of Related Gauges

Reports give the public a chance to report on river conditions throughout the country as well as log the history of a river.

Reports

No Reports Filed

Linked Reaches

Click a heading to sort. Hover over a heading for help.
River Name/Section Class Level running? Updated
Pit [CA] 6) Pit 5: Pit 5 Dam to Pit 5 Powerhouse III+(V) 1594 cfs
+ 5 cfs/hr
R1-
Lower Runnable
04h38m